This demonstration page uses our WeatherBlox Daily Observations layout. Learn more.

Left ArrowRight Arrow

Hourly Observations for June 6, 2016

Temp ( °F °C ) Dew Point ( °F °C ) Humidity (%) Winds ( mph kmh ) Pressure ( in mb ) Visibility ( mi km ) Precip ( " mm )
12:54 am 00:54 Clear 69 20.6 48 8.9 47 47 Calm 29.85 1011 10 16.0934 0 0
1:54 am 01:54 Clear 64 17.8 51 10.6 63 63 NNE 3 6 29.85 1011 10 16.0934 0 0
2:54 am 02:54 Clear 65 18.3 50 10 59 59 Calm 29.86 1011 10 16.0934 0 0
3:54 am 03:54 Clear 66 18.9 49 9.4 54 54 WNW 3 6 29.86 1011 10 16.0934 0 0
4:54 am 04:54 Clear 58 14.4 50 10 75 75 N 6 9 29.87 1011 10 16.0934 0 0
5:54 am 05:54 Clear 57 13.9 51 10.6 81 81 Calm 29.87 1012 10 16.0934 0 0
6:54 am 06:54 Sunny 61 16.1 53 11.7 75 75 Calm 29.88 1012 10 16.0934 0 0
7:54 am 07:54 Sunny 68 20 54 12.2 61 61 Calm 29.88 1012 10 16.0934 0 0
8:54 am 08:54 Mostly Sunny 74 23.3 58 14.4 57 57 Calm 29.88 1012 10 16.0934 0 0
9:54 am 09:54 Sunny 81 27.2 57 13.9 44 44 WNW 9 15 29.88 1012 10 16.0934 0 0
10:54 am 10:54 Sunny 83 28.3 51 10.6 33 33 NNW 15 24 29.88 1012 10 16.0934 0 0
11:54 am 11:54 Sunny 84 28.9 46 7.8 27 27 NW 16 26 29.88 1012 10 16.0934 0 0
12:54 pm 12:54 Sunny 85 29.4 46 7.8 26 26 N 14 22 29.87 1012 10 16.0934 0 0
1:54 pm 13:54 Sunny 86 30 45 7.2 24 24 NW 12 19 29.87 1012 10 16.0934 0 0
2:54 pm 14:54 Sunny 86 30 46 7.8 25 25 NW 17 28 29.86 1011 10 16.0934 0 0
3:54 pm 15:54 Sunny 86 30 46 7.8 25 25 NW 14 22 29.86 1011 10 16.0934 0 0
4:54 pm 16:54 Sunny 85 29.4 46 7.8 26 26 NNW 20 31 29.86 1011 10 16.0934 0 0
5:54 pm 17:54 Sunny 84 28.9 43 6.1 24 24 NNW 22 35 29.87 1011 10 16.0934 0 0
6:54 pm 18:54 Sunny 80 26.7 43 6.1 27 27 N 16 26 29.87 1012 10 16.0934 0 0
7:54 pm 19:54 Sunny 76 24.4 44 6.7 32 32 N 17 28 29.88 1012 10 16.0934 0 0
8:54 pm 20:54 Sunny 70 21.1 46 7.8 42 42 N 12 19 29.9 1013 10 16.0934 0 0
9:54 pm 21:54 Clear 65 18.3 48 8.9 54 54 N 9 15 29.92 1013 10 16.0934 0 0
10:54 pm 22:54 Clear 64 17.8 49 9.4 58 58 N 6 9 29.96 1015 10 16.0934 0 0
11:54 pm 23:54 Clear 59 15 50 10 72 72 N 5 7 29.97 1015 10 16.0934 0 0

Powered by AerisWeather